SB KEPS @ AMSAT $ORB12027.O Orbital Elements 12027.OSCAR
HR AMSAT ORBITAL ELEMENTS FOR OSCAR SATELLITES FROM WA5QGD FORT WORTH,TX January 27, 2012 Send SUBSCRIBE KEPS/UNSUBSCRIBE KEPS to majordomo@amsat.org only BID: ORB12027.O TO ALL RADIO AMATEURS BT
Satellite: AO-07 Catalog number: 07530 Epoch time: 12026.85193452 Element set: 290 Inclination: 101.3979 deg RA of node: 029.5887 deg Eccentricity: 0.0011814 Arg of perigee: 201.2218 deg Mean anomaly: 158.8365 deg Mean motion: 12.53587271 rev/day Decay rate: -2.7e-07 rev/day^2 Epoch rev: 70221 Checksum: 291
Satellite: FO-29 Catalog number: 24278 Epoch time: 12025.94422611 Element set: 0773 Inclination: 098.5747 deg RA of node: 145.4169 deg Eccentricity: 0.0351134 Arg of perigee: 040.2654 deg Mean anomaly: 322.3934 deg Mean motion: 13.52975710 rev/day Decay rate: -2.1e-07 rev/day^2 Epoch rev: 76258 Checksum: 307
Satellite: SO-33 Catalog number: 25509 Epoch time: 12025.46766172 Element set: 0154 Inclination: 031.4344 deg RA of node: 066.9330 deg Eccentricity: 0.0352734 Arg of perigee: 025.7950 deg Mean anomaly: 335.9818 deg Mean motion: 14.28659458 rev/day Decay rate: 5.98e-06 rev/day^2 Epoch rev: 69208 Checksum: 330
Satellite: RS-22 Catalog number: 27939 Epoch time: 12026.62623717 Element set: 26 Inclination: 097.8222 deg RA of node: 234.6607 deg Eccentricity: 0.0013566 Arg of perigee: 002.1335 deg Mean anomaly: 357.9913 deg Mean motion: 14.63881606 rev/day Decay rate: 7.17e-06 rev/day^2 Epoch rev: 44502 Checksum: 300
Satellite: VO-52 Catalog number: 28650 Epoch time: 12026.66917644 Element set: 9 Inclination: 097.6152 deg RA of node: 064.5045 deg Eccentricity: 0.0027196 Arg of perigee: 147.0113 deg Mean anomaly: 213.2818 deg Mean motion: 14.82641959 rev/day Decay rate: 1.736e-05 rev/day^2 Epoch rev: 36385 Checksum: 312
Satellite: SO-67 Catalog number: 35870 Epoch time: 12026.75874977 Element set: 624 Inclination: 097.2526 deg RA of node: 067.4931 deg Eccentricity: 0.0001700 Arg of perigee: 003.3150 deg Mean anomaly: 088.8814 deg Mean motion: 15.22648441 rev/day Decay rate: 4.956e-05 rev/day^2 Epoch rev: 13093 Checksum: 317
Satellite: HO-68 Catalog number: 36122 Epoch time: 12026.70145432 Element set: 142 Inclination: 100.3840 deg RA of node: 088.8127 deg Eccentricity: 0.0007772 Arg of perigee: 076.1256 deg Mean anomaly: 284.0716 deg Mean motion: 13.16292564 rev/day Decay rate: -4.4e-07 rev/day^2 Epoch rev: 10164 Checksum: 271
/EX SB KEPS @ AMSAT $ORB12027.D Orbital Elements 12027.MICROS
HR AMSAT ORBITAL ELEMENTS FOR THE MICROSATS FROM WA5QGD FORT WORTH,TX January 27, 2012 Send SUBSCRIBE KEPS/UNSUBSCRIBE KEPS to majordomo@amsat.org only BID: ORB12027.D TO ALL RADIO AMATEURS BT
Satellite: UO-11 Catalog number: 14781 Epoch time: 12025.69139680 Element set: 0776 Inclination: 097.9759 deg RA of node: 086.3442 deg Eccentricity: 0.0009654 Arg of perigee: 133.4985 deg Mean anomaly: 226.7021 deg Mean motion: 14.80290440 rev/day Decay rate: 8.36e-06 rev/day^2 Epoch rev: 49870 Checksum: 332
Satellite: AO-16 Catalog number: 20439 Epoch time: 12025.85216355 Element set: 0391 Inclination: 098.4132 deg RA of node: 333.3651 deg Eccentricity: 0.0010104 Arg of perigee: 221.7850 deg Mean anomaly: 138.2557 deg Mean motion: 14.32011188 rev/day Decay rate: 1.56e-06 rev/day^2 Epoch rev: 14948 Checksum: 273
Satellite: LO-19 Catalog number: 20442 Epoch time: 12025.89705607 Element set: 305 Inclination: 098.3789 deg RA of node: 336.9271 deg Eccentricity: 0.0011358 Arg of perigee: 212.3803 deg Mean anomaly: 147.6679 deg Mean motion: 14.32232658 rev/day Decay rate: 2.85e-06 rev/day^2 Epoch rev: 14967 Checksum: 322
Satellite: AO-27 Catalog number: 22825 Epoch time: 12025.89164971 Element set: 16 Inclination: 098.5593 deg RA of node: 331.0562 deg Eccentricity: 0.0008212 Arg of perigee: 346.5886 deg Mean anomaly: 013.5074 deg Mean motion: 14.29424716 rev/day Decay rate: 2.25e-06 rev/day^2 Epoch rev: 95600 Checksum: 301
Satellite: IO-26 Catalog number: 22826 Epoch time: 12025.84979102 Element set: 0773 Inclination: 098.5534 deg RA of node: 331.4240 deg Eccentricity: 0.0008883 Arg of perigee: 340.8320 deg Mean anomaly: 019.2523 deg Mean motion: 14.29694345 rev/day Decay rate: 1.29e-06 rev/day^2 Epoch rev: 95612 Checksum: 307
Satellite: GO-32 Catalog number: 25397 Epoch time: 12026.75678017 Element set: 688 Inclination: 098.3477 deg RA of node: 012.5940 deg Eccentricity: 0.0001326 Arg of perigee: 022.5674 deg Mean anomaly: 337.5538 deg Mean motion: 14.23254833 rev/day Decay rate: 9.7e-07 rev/day^2 Epoch rev: 70376 Checksum: 321
Satellite: NO-44 Catalog number: 26931 Epoch time: 12025.77991182 Element set: 0956 Inclination: 067.0536 deg RA of node: 129.9331 deg Eccentricity: 0.0005881 Arg of perigee: 283.2579 deg Mean anomaly: 076.7868 deg Mean motion: 14.29755050 rev/day Decay rate: 2.81e-06 rev/day^2 Epoch rev: 53874 Checksum: 344
Satellite: SO-50 Catalog number: 27607 Epoch time: 12025.50880642 Element set: 0672 Inclination: 064.5582 deg RA of node: 011.9003 deg Eccentricity: 0.0085021 Arg of perigee: 276.5362 deg Mean anomaly: 082.6057 deg Mean motion: 14.72183926 rev/day Decay rate: 1.192e-05 rev/day^2 Epoch rev: 48881 Checksum: 298
Satellite: CO-55 Catalog number: 27844 Epoch time: 12026.61664021 Element set: 296 Inclination: 098.7046 deg RA of node: 037.0654 deg Eccentricity: 0.0009090 Arg of perigee: 276.5229 deg Mean anomaly: 083.4927 deg Mean motion: 14.20952440 rev/day Decay rate: 2.84e-06 rev/day^2 Epoch rev: 44464 Checksum: 309
Satellite: CO-57 Catalog number: 27848 Epoch time: 12025.53943337 Element set: 244 Inclination: 098.7126 deg RA of node: 035.2752 deg Eccentricity: 0.0008946 Arg of perigee: 284.8893 deg Mean anomaly: 075.1292 deg Mean motion: 14.20713012 rev/day Decay rate: 2.40e-06 rev/day^2 Epoch rev: 44443 Checksum: 306
Satellite: AO-51 Catalog number: 28375 Epoch time: 12026.86594149 Element set: 178 Inclination: 098.1265 deg RA of node: 358.9168 deg Eccentricity: 0.0084225 Arg of perigee: 111.5430 deg Mean anomaly: 249.4759 deg Mean motion: 14.40886980 rev/day Decay rate: 1.43e-06 rev/day^2 Epoch rev: 39827 Checksum: 346
Satellite: CP3 Catalog number: 31129 Epoch time: 12026.60000097 Element set: 78 Inclination: 097.8870 deg RA of node: 042.7692 deg Eccentricity: 0.0101119 Arg of perigee: 206.0231 deg Mean anomaly: 153.5837 deg Mean motion: 14.52868244 rev/day Decay rate: 8.39e-06 rev/day^2 Epoch rev: 25327 Checksum: 287
Satellite: CO-65 Catalog number: 32785 Epoch time: 12025.64542421 Element set: 0214 Inclination: 097.8204 deg RA of node: 089.9948 deg Eccentricity: 0.0014937 Arg of perigee: 166.4592 deg Mean anomaly: 193.7004 deg Mean motion: 14.82640500 rev/day Decay rate: 1.432e-05 rev/day^2 Epoch rev: 20249 Checksum: 305
Satellite: PRISM Catalog number: 33493 Epoch time: 12026.80803514 Element set: 366 Inclination: 098.1487 deg RA of node: 164.2492 deg Eccentricity: 0.0019858 Arg of perigee: 040.9534 deg Mean anomaly: 319.3203 deg Mean motion: 14.83111153 rev/day Decay rate: 3.065e-05 rev/day^2 Epoch rev: 16264 Checksum: 288
Satellite: SOHLA-1 Catalog number: 33496 Epoch time: 12025.81282034 Element set: 0640 Inclination: 098.0923 deg RA of node: 138.6300 deg Eccentricity: 0.0007261 Arg of perigee: 130.2439 deg Mean anomaly: 229.9403 deg Mean motion: 14.69851505 rev/day Decay rate: 5.62e-06 rev/day^2 Epoch rev: 16118 Checksum: 277
Satellite: TISAT-1 Catalog number: 36799 Epoch time: 12026.85057843 Element set: 640 Inclination: 098.0777 deg RA of node: 102.1212 deg Eccentricity: 0.0013862 Arg of perigee: 274.2492 deg Mean anomaly: 085.7165 deg Mean motion: 14.81458422 rev/day Decay rate: 2.089e-05 rev/day^2 Epoch rev: 8341 Checksum: 308
Satellite: STUDSAT Catalog number: 36801 Epoch time: 12026.22490391 Element set: 327 Inclination: 098.0829 deg RA of node: 101.6801 deg Eccentricity: 0.0012391 Arg of perigee: 262.7350 deg Mean anomaly: 097.2593 deg Mean motion: 14.82944357 rev/day Decay rate: 5.507e-05 rev/day^2 Epoch rev: 8332 Checksum: 288
Satellite: FO-69 Catalog number: 37227 Epoch time: 12018.13838078 Element set: 0079 Inclination: 071.9715 deg RA of node: 285.2240 deg Eccentricity: 0.0018772 Arg of perigee: 243.3066 deg Mean anomaly: 116.6174 deg Mean motion: 14.76896760 rev/day Decay rate: 4.22e-06 rev/day^2 Epoch rev: 01379 Checksum: 322
Satellite: FO-70 Catalog number: 37380 Epoch time: 12018.38985263 Element set: 0083 Inclination: 071.9747 deg RA of node: 285.0401 deg Eccentricity: 0.0019270 Arg of perigee: 240.0754 deg Mean anomaly: 119.8494 deg Mean motion: 14.76656006 rev/day Decay rate: 4.83e-06 rev/day^2 Epoch rev: 01372 Checksum: 306
/EX SB KEPS @ AMSAT $ORB12027.W Orbital Elements 12027.WEATHER
HR AMSAT ORBITAL ELEMENTS FOR WEATHER SATELLITES FROM WA5QGD FORT WORTH,TX January 27, 2012 Send SUBSCRIBE KEPS/UNSUBSCRIBE KEPS to majordomo@amsat.org only BID: ORB12027.W TO ALL RADIO AMATEURS BT
Satellite: NOAA-10 Catalog number: 16969 Epoch time: 12025.96535746 Element set: 0798 Inclination: 098.5978 deg RA of node: 057.4599 deg Eccentricity: 0.0011518 Arg of perigee: 295.5236 deg Mean anomaly: 064.4755 deg Mean motion: 14.27523632 rev/day Decay rate: 1.74e-06 rev/day^2 Epoch rev: 31943 Checksum: 352
Satellite: NOAA-11 Catalog number: 19531 Epoch time: 12025.80952574 Element set: 0793 Inclination: 098.7404 deg RA of node: 113.9536 deg Eccentricity: 0.0010420 Arg of perigee: 275.4302 deg Mean anomaly: 084.5691 deg Mean motion: 14.14949557 rev/day Decay rate: -1.05e-06 rev/day^2 Epoch rev: 20423 Checksum: 290
Satellite: NOAA-12 Catalog number: 21263 Epoch time: 12025.92752494 Element set: 0292 Inclination: 098.7387 deg RA of node: 048.1917 deg Eccentricity: 0.0012893 Arg of perigee: 257.8438 deg Mean anomaly: 102.1297 deg Mean motion: 14.25474010 rev/day Decay rate: 6.7e-07 rev/day^2 Epoch rev: 07614 Checksum: 306
